Regional Weather Roundup
Issued by NWS Wakefield, VA

Home | Current Version | Previous Version | Graphics & Text | Print | Product List | Glossary On
Versions: 1 2 3 4 5 6 7 8 9 10 11 12 13 14 15 16 17 18 19 20 21 22 23 24 25 26 27
000
ASUS41 KAKQ 170210
RWRAKQ

REGIONAL WEATHER ROUNDUP
NATIONAL WEATHER SERVICE WAKEFIELD VA
1000 PM EDT WED APR 16 2014

Note: "fair" indicates few or no clouds below 12,000 feet with no
significant weather and/or obstructions to visibility. * = Denotes
station may not report precipitation (e.g., rain,snow,etc.),
thunder or fog.

VAZ042-051-052>054-056-170300-
NORTHERN VIRGINIA

CITY           SKY/WX    TMP DP  RH WIND       PRES   REMARKS
WASH NATIONAL  CLEAR     46  21  37 NE9       30.52R
DULLES         CLEAR     40  22  48 NE7       30.50R
FORT BELVOIR   CLEAR     37  23  57 CALM      30.51R
QUANTICO       CLEAR     45  26  47 SE12      30.53R
FREDERICKSBRG* CLEAR     39  27  60 E6        30.51R
STAFFORD*      CLEAR     35  29  78 CALM      30.55R
WARRENTON      CLEAR     37  30  77 CALM      30.50R
CULPEPER*      CLEAR     37  25  60 CALM      30.51R
MANASSAS*      CLEAR     41  21  45 NE5       30.51R
LEESBURG*      CLEAR     41  23  48 NE5       30.52R
WINCHESTER     CLEAR     34  23  64 CALM      30.49R
$$

VAZ048-049-060>072-079>083-170300-
CENTRAL AND SOUTH CENTRAL VIRGINIA...AND NORTH CENTRAL NORTH CAROLINA

CITY           SKY/WX    TMP DP  RH WIND       PRES   REMARKS
RICHMOND       CLEAR     41  22  46 E5        30.50R
CHESTERFIELD*  CLEAR     43  16  33 E7        30.50R
HANOVER        CLEAR     35  27  72 CALM      30.51R
TAPPAHANNOCK*  CLEAR     39  21  47 CALM      30.51R
CHARLOTTSVILLE CLEAR     40  19  43 NE3       30.48R
ORANGE*        CLEAR     36  28  75 CALM      30.50R
LOUISA*        CLEAR     34  21  60 NE3       30.48R
FARMVILLE*     CLEAR     39  21  48 N5        30.46R
SOUTH HILL*    CLEAR     39  30  70 CALM      30.52R
ROANOKE RAPIDS CLEAR     45  32  61 E6        30.48R
RALEIGH        CLEAR     41  28  60 E5        30.44R
$$

VAZ088>098-170300-
SOUTHEAST VIRGINIA

CITY           SKY/WX    TMP DP  RH WIND       PRES   REMARKS
NORFOLK        CLEAR     43  31  62 E7        30.50R
VIRGINIA BEACH CLEAR     42  29  59 NE9       30.49R
NORFOLK NAVAL  CLEAR     43  31  62 E8        30.51R
WEST POINT*    CLEAR     42  23  46 CALM      30.52R
NEWPORT NEWS   CLEAR     43  33  68 CALM      30.50R
LANGLEY AFB    CLEAR     42  33  69 E6        30.51R
FORT EUSTIS    CLEAR     42  30  62 VRB2      30.49R
WILLIAMSBURG*  CLEAR     41  30  65 CALM      30.51R
FRANKLIN*      CLEAR     41  32  70 CALM      30.50R
WAKEFIELD      CLEAR     37  29  72 CALM      30.50R
$$

VAZ020-022-025-037-045-170300-
WESTERN AND SOUTHWEST VIRGINIA

CITY           SKY/WX    TMP DP  RH WIND       PRES   REMARKS
STAUNTON*      CLEAR     34  24  67 CALM      30.46R
HOT SPRINGS VA CLEAR     32  18  55 E8        30.38S
LYNCHBURG      CLEAR     46  17  31 E6        30.46R
DANVILLE       CLEAR     39  27  62 E3        30.45R
MARTINSVILLE   CLEAR     36  30  79 CALM      30.45R
ROANOKE        CLEAR     45  20  36 E8        30.44R
BLACKSBURG     CLEAR     41  25  52 SE9       30.41R
DUBLIN*        CLEAR     39  22  51 SE6       30.40R
MARION*        CLEAR     41  18  38 E12       30.37R
HILLSVILLE*    CLEAR     37  18  44 SE3       30.40R
RICHLANDS*     CLEAR     48  19  31 SE14G21   30.28R
WISE*          CLEAR     46  18  31 S5        30.26S
ABINGDON*      CLEAR     47  17  29 E8        30.29R
$$

MDZ021>025-VAZ099-100-170300-
SOUTHERN MARYLAND AND THE DELMARVA PENINSULA

CITY           SKY/WX    TMP DP  RH WIND       PRES   REMARKS
PATUXENT RIVER CLEAR     41  24  51 NE7       30.51R
BAY BRIDGE APT CLEAR     41  23  48 N5        30.52R
LEONARDTOWN    CLEAR     39  25  56 CALM      30.52R
DOVER          CLEAR     38  33  84 SE5       30.49R
GEORGETOWN     CLEAR     39  29  67 CALM      30.53R
EASTON         CLEAR     41  27  56 CALM      30.55R
CAMBRIDGE      CLEAR     43  27  52 N5        30.51R
SALISBURY      CLEAR     39  30  70 E3        30.52R
OCEAN CITY     CLEAR     41  30  65 NE7       30.51R
WALLOPS ISLAND CLEAR     42  30  62 E10       30.51R
ACCOMACK*      NOT AVBL
$$

NCZ012>017-030>032-170300-
EASTERN NORTH CAROLINA

CITY           SKY/WX    TMP DP  RH WIND       PRES   REMARKS
ELIZABETH CITY CLEAR     42  29  59 NE12      30.50R
AHOSKIE*       CLEAR     41  29  64 NE3       30.49R
EDENTON*       CLEAR     41  33  73 NE5       30.49R
CURRITUCK*     CLEAR     43  28  55 NE10G17   30.50R
KILL DEVIL HLS CLEAR     41  32  69 NE7G16    30.46S
MANTEO         CLEAR     41  32  70 NE15      30.47S
CAPE HATTERAS  CLEAR     45  38  76 N14G26    30.41S
GOLDSBORO      CLEAR     43  35  73 E7        30.43R
WASHINGTON     CLEAR     43  33  67 E6        30.47R
GREENVILLE     CLEAR     43  28  56 E5        30.46R
NEW BERN       CLEAR     44  28  53 E8        30.47R
WILMINGTON     CLEAR     47  33  58 NE10      30.41R
$$

VAZ048-170300-
ELSEWHERE

CITY           SKY/WX    TMP DP  RH WIND       PRES   REMARKS
HARRISBURG PA  PTCLDY    42  20  41 CALM      30.52R
BALTIMORE      CLEAR     42  20  41 N3        30.51R
ANNAPOLIS      CLEAR     45  28  51 N5        30.52R
ANDREWS AFB    CLEAR     39  21  48 NE6       30.50R
WILMINGTON DE  CLEAR     40  20  44 N6        30.53R
PHILADELPHIA   PTCLDY    43  16  33 N6        30.54R
WILDWOOD NJ*   CLEAR     41  27  56 E5        30.53R
ATLANTIC CITY  CLEAR     35  26  69 SE5       30.52R
HENDERSON NC   CLEAR     40  28  61 NE3       30.45R
GREENSBORO     CLEAR     44  25  47 E7        30.40R
ROCKY MOUNT      N/A    N/A N/A N/A MISG      30.46R
FAYETTEVILLE   CLEAR     44  31  60 NE5       30.42R
CHARLOTTE      CLEAR     49  27  42 E5        30.39R
$$

VAZ100-170300-
MARINE

STATION/POSITION TIME  TEMP    WIND        PRES    WAVE   SWELL
                       AIR SEA DIR/SP/G            HT/PER HT/PER
                 (UTC) (F)     (DEG/KT/KT) (MB)    (FT/S) (FT/S)
44066 TX TWR #4  0200   42 45   40/ 12/ 14 1032.6R   5/11   3/11
CAPE MAY NJ      0200   42 54   90/  4/  6 1033.2R
LEWES DE         0200   43 51  110/  6/  8 1032.8R
15NM E FENWICK I 0200   43 45              1032.8R   4/ 9
OCEAN-CITY-INLET 0200   42 46   80/  5/  8 1033.0R
WACHAPREAGUE VA  0200   44 56   60/ 14/ 16 1032.3R
THOMAS POINT MD  0200   46 52   30/ 11/ 12 1033.6R
GOOSES REEF MD   0200   45      50/ 10/ 12 1033.8R
COVE POINT MD    0200   45      60/ 11/ 12 1032.9R
SOLOMONS ISLAND  0200      53                N/A
BISHOPS HEAD MD  0200   45 51   40/  6/ 11 1032.6R
PINEY POINT MD   0200           60/  3/  4   N/A
POTOMAC MD       0200   46      40/ 10/ 14 1032.1R
CAMBRIDGE MD     0200   45 56   10/  9/ 10 1032.7R
LEWISETTA VA     0200   45 54   40/  8/ 12 1032.7R
RAPPAHANNOCK LGT 0200           70/ 11/ 14 1033.1R
STINGRAY PT      0200   45     130/ 10/ 12 1032.5R
YORK RVR RNG VA  0200   45     100/  7/  9 1032.0R
YORKTOWN VA      0200   45 56   50/  9/ 10 1032.6R
JAMESTOWN VA     0200   43      60/  2/  4   N/A
DOMINION TERM VA 0200   45      60/  7/ 10 1032.6R
KIPTOPEKE VA     0200      55   90/  5/  9   N/A
CHES BAY BRIDGE  0200   44 51   40/ 12/ 14 1032.5R
CAPE HENRY VA    0200           50/ 13/ 16   N/A
CHESAPEAKE LGHT  0100   43      60/ 22/ 24 1032.0R
WILLOUBY STN VA  0200   44      90/  9/ 11 1031.8R
S CRANEY ISL VA  0200           50/  7/  9 1032.9R
CAPE HENRY BUOY  0200      45                N/A     6/ 8   2/11
1ST LANDING BUOY 0200      46                N/A     5/ 8   3/ 8
64NM E OF VA BCH 0200   47 65   50/ 19/ 25 1030.9R   9/ 8   5/11
DUCK PIER NC     0200   43 48   40/ 19/ 23 1031.3R
44100 DUCK FRF   0200      47                N/A     7/ 7   2/11
44056 DUCK FRF   0200      47                N/A     6/ 7   2/11
OREGON INLET NC  0200   43 53   10/ 14/ 21 1031.4R
HATTERAS NC      0200   47 58   10/ 17/ 25 1029.8F
CAPE LOOKOUT NC  0100   46      30/ 19/ 24 1029.8R
FRYING PAN SHLS  0200   52 65   50/ 25/ 31 1027.3F   9/ 7   3/11
$$



USA.gov is the U.S. government's official web portal to all federal, state and local government web resources and services.